Location: Newark
(21.1200°N, 73.4000°E)
Time: 10:26:38
(UTC+00:00)

Vanguard 1 Rocket - Pass Details

Date: 18 January 2021
Orbit: 654 x 4223 km, 34.3° (Epoch: 07 March)

Event Time Altitude Azimuth Distance (km) Brightness Sun altitude
Rises 17:22:24 0° 268° (W) 5,432 11.8 -63.2°
Reaches altitude 10° 17:26:50 10° 253° (WSW) 4,974 11.4 -64.3°
Maximum altitude 17:37:11 21° 210° (SSW) 5,152 11.2 -66.7°
Drops below altitude 10° 17:51:49 10° 170° (S) 7,079 11.8 -70.1°
Sets 18:00:43 0° 156° (SSE) 8,408 12.2 -72.2°
